Location: Brachbach
(49.1847°N, 9.7240°E)
Time: 02:19:22
(UTC+00:00)

ARIANE 6 FM1 Upper Stage - Pass Details

Date: 01 February 2026
Orbit: 522 x 609 km, 62.0° (Epoch: 13 February)

Event Time Altitude Azimuth Distance (km) Brightness Sun altitude
Rises 17:34:12 0° 269° (W) 2,691 8.0 -12.7°
Reaches altitude 10° 17:36:51 10° 286° (WNW) 1,789 6.3 -13.1°
Maximum altitude 17:39:55 21° 336° (NNW) 1,240 4.6 -13.6°
Drops below altitude 10° 17:42:58 10° 26° (NNE) 1,773 4.9 -14.1°
Enters shadow 17:42:59 10° 26° (NNE) 1,776 4.9 -14.1°
